When you browse on this site, cookies collect data to enhance your experience and personalize the content and advertising you see.
Visit our Privacy Policy to learn more. By continuing to use the site, you agree to this use of cookies and data.
  • In Hungary
  • List of Countries
  • For 7 days
  • Water Temperature
  • Weather Map
  • News
  • Weather Widgets
  • user-avatar
    Login

    Hourly Weather Chipping Sodbury

    Today, 26 August, Monday

    Time Temperature Precipitation Wind Pressure Humidity
    00:00 +18°C° 0 mm 1 mps 754 mmHg 89%
    01:00 +16°C° 0 mm 1 mps 754 mmHg 90%
    02:00 +16°C° 0 mm 1 mps 754 mmHg 90%
    03:00 +16°C° 0 mm 1 mps 754 mmHg 91%
    04:00 +16°C° 0 mm 1 mps 754 mmHg 91%
    05:00 +16°C° 0 mm 1 mps 754 mmHg 91%
    06:00 +16°C° 0 mm 1 mps 754 mmHg 91%
    07:00 +19°C° 0 mm 1 mps 754 mmHg 85%
    08:00 +20°C° 0 mm 1 mps 754 mmHg 80%
    09:00 +22°C° 0 mm 1 mps 754 mmHg 74%
    10:00 +24°C° 0 mm 1 mps 754 mmHg 68%
    11:00 +25°C° 0 mm 1 mps 754 mmHg 61%
    12:00 +25°C° 0 mm 0 mps 754 mmHg 55%
    13:00 +27°C° 0 mm 1 mps 754 mmHg 54%
    14:00 +27°C° 0 mm 2 mps 753 mmHg 53%
    15:00 +27°C° 0 mm 2 mps 753 mmHg 52%
    16:00 +26°C° 0 mm 3 mps 753 mmHg 59%
    17:00 +25°C° 0 mm 3 mps 753 mmHg 67%
    18:00 +22°C° 0 mm 3 mps 753 mmHg 74%
    19:00 +21°C° 0 mm 3 mps 753 mmHg 78%
    20:00 +20°C° 0 mm 2 mps 753 mmHg 82%
    21:00 +19°C° 0 mm 1 mps 753 mmHg 86%
    22:00 +19°C° 0 mm 1 mps 753 mmHg 85%
    23:00 +19°C° 0 mm 1 mps 753 mmHg 85%

    Tomorrow, 27 August, Tuesday

    Time Temperature Precipitation Wind Pressure Humidity
    00:00 +17°C° 0 mm 0 mps 752 mmHg 85%
    01:00 +18°C° 0 mm 1 mps 752 mmHg 85%
    02:00 +18°C° 0 mm 1 mps 752 mmHg 85%
    03:00 +18°C° 0 mm 1 mps 752 mmHg 86%
    04:00 +17°C° 0.3 mm 2 mps 752 mmHg 87%
    05:00 +17°C° 0.3 mm 2 mps 752 mmHg 88%
    06:00 +16°C° 0.3 mm 2 mps 752 mmHg 89%
    07:00 +17°C° 0.5 mm 2 mps 752 mmHg 88%
    08:00 +19°C° 0.5 mm 1 mps 752 mmHg 87%
    09:00 +20°C° 0.5 mm 1 mps 752 mmHg 86%
    10:00 +21°C° 0 mm 1 mps 752 mmHg 80%
    11:00 +22°C° 0 mm 1 mps 752 mmHg 75%
    12:00 +24°C° 0 mm 2 mps 752 mmHg 69%
    13:00 +24°C° 0 mm 2 mps 751 mmHg 67%
    14:00 +24°C° 0 mm 3 mps 751 mmHg 66%
    15:00 +25°C° 0 mm 3 mps 751 mmHg 64%
    16:00 +22°C° 0 mm 3 mps 751 mmHg 67%
    17:00 +21°C° 0 mm 3 mps 751 mmHg 69%
    18:00 +20°C° 0 mm 3 mps 751 mmHg 72%
    19:00 +19°C° 0 mm 2 mps 751 mmHg 71%
    20:00 +18°C° 0 mm 2 mps 751 mmHg 70%
    21:00 +18°C° 0 mm 2 mps 751 mmHg 69%
    22:00 +18°C° 0 mm 1 mps 751 mmHg 69%
    23:00 +18°C° 0 mm 1 mps 751 mmHg 69%

    Day after tomorrow, 28 August, Wednesday

    Time Temperature Precipitation Wind Pressure Humidity
    00:00 +16°C° 0 mm 0 mps 751 mmHg 68%
    01:00 +18°C° 0 mm 1 mps 751 mmHg 69%
    02:00 +18°C° 0 mm 1 mps 751 mmHg 70%
    03:00 +16°C° 0 mm 1 mps 750 mmHg 71%
    04:00 +16°C° 0 mm 1 mps 750 mmHg 71%
    05:00 +16°C° 0 mm 1 mps 750 mmHg 72%
    06:00 +16°C° 0 mm 1 mps 750 mmHg 73%
    07:00 +17°C° 0 mm 2 mps 750 mmHg 71%
    08:00 +19°C° 0 mm 2 mps 750 mmHg 69%
    09:00 +20°C° 0 mm 3 mps 750 mmHg 67%
    10:00 +21°C° 0 mm 3 mps 750 mmHg 63%
    11:00 +21°C° 0 mm 3 mps 750 mmHg 60%
    12:00 +22°C° 0 mm 4 mps 750 mmHg 57%
    13:00 +22°C° 0.1 mm 4 mps 750 mmHg 61%
    14:00 +21°C° 0.1 mm 4 mps 750 mmHg 65%
    15:00 +20°C° 0.1 mm 4 mps 750 mmHg 69%
    16:00 +20°C° 0.1 mm 4 mps 750 mmHg 74%
    17:00 +19°C° 0.1 mm 4 mps 750 mmHg 78%
    18:00 +19°C° 0.1 mm 3 mps 750 mmHg 83%
    19:00 +18°C° 0.2 mm 4 mps 750 mmHg 85%
    20:00 +17°C° 0.2 mm 4 mps 751 mmHg 87%
    21:00 +15°C° 0.2 mm 4 mps 751 mmHg 89%
    22:00 +14°C° 0 mm 4 mps 751 mmHg 87%
    23:00 +14°C° 0 mm 4 mps 751 mmHg 84%

    29 August, Thursday

    Time Temperature Precipitation Wind Pressure Humidity
    00:00 +13°C° 0 mm 4 mps 752 mmHg 81%
    01:00 +12°C° 0 mm 3 mps 752 mmHg 84%
    02:00 +11°C° 0 mm 3 mps 752 mmHg 86%
    03:00 +10°C° 0 mm 2 mps 752 mmHg 89%
    04:00 +10°C° 0 mm 2 mps 753 mmHg 88%
    05:00 +12°C° 0 mm 2 mps 753 mmHg 88%
    06:00 +12°C° 0 mm 2 mps 753 mmHg 88%
    07:00 +13°C° 0 mm 2 mps 754 mmHg 82%
    08:00 +14°C° 0 mm 3 mps 754 mmHg 76%
    09:00 +17°C° 0 mm 3 mps 755 mmHg 70%
    10:00 +18°C° 0 mm 4 mps 755 mmHg 65%
    11:00 +17°C° 0 mm 5 mps 755 mmHg 61%
    12:00 +19°C° 0 mm 5 mps 755 mmHg 57%
    13:00 +19°C° 0 mm 5 mps 755 mmHg 56%
    14:00 +19°C° 0 mm 5 mps 755 mmHg 56%
    15:00 +19°C° 0 mm 5 mps 755 mmHg 55%
    16:00 +17°C° 0 mm 5 mps 755 mmHg 60%
    17:00 +17°C° 0 mm 4 mps 755 mmHg 66%
    18:00 +17°C° 0 mm 4 mps 755 mmHg 71%
    19:00 +14°C° 0 mm 3 mps 756 mmHg 76%
    20:00 +13°C° 0 mm 3 mps 756 mmHg 80%
    21:00 +13°C° 0 mm 2 mps 756 mmHg 84%
    22:00 +13°C° 0 mm 2 mps 756 mmHg 86%
    23:00 +12°C° 0 mm 2 mps 756 mmHg 87%

    30 August, Friday

    Time Temperature Precipitation Wind Pressure Humidity
    00:00 +12°C° 0 mm 2 mps 756 mmHg 88%
    01:00 +12°C° 0 mm 2 mps 756 mmHg 90%
    02:00 +12°C° 0 mm 2 mps 756 mmHg 92%
    03:00 +12°C° 0 mm 2 mps 755 mmHg 93%
    04:00 +11°C° 0 mm 3 mps 755 mmHg 93%
    05:00 +11°C° 0 mm 3 mps 755 mmHg 93%
    06:00 +11°C° 0 mm 3 mps 755 mmHg 93%
    07:00 +13°C° 0 mm 3 mps 755 mmHg 87%
    08:00 +14°C° 0 mm 4 mps 756 mmHg 81%
    09:00 +17°C° 0 mm 4 mps 756 mmHg 75%
    10:00 +18°C° 0 mm 4 mps 756 mmHg 71%
    11:00 +19°C° 0 mm 5 mps 755 mmHg 67%
    12:00 +20°C° 0 mm 5 mps 755 mmHg 64%
    13:00 +20°C° 0 mm 5 mps 755 mmHg 65%
    14:00 +20°C° 0 mm 5 mps 755 mmHg 66%
    15:00 +20°C° 0 mm 5 mps 754 mmHg 67%
    16:00 +19°C° 0 mm 5 mps 754 mmHg 71%
    17:00 +19°C° 0 mm 4 mps 754 mmHg 75%
    18:00 +18°C° 0 mm 4 mps 753 mmHg 79%
    19:00 +17°C° 0 mm 4 mps 753 mmHg 82%
    20:00 +15°C° 0 mm 4 mps 753 mmHg 84%
    21:00 +15°C° 0 mm 4 mps 753 mmHg 87%
    22:00 +14°C° 0 mm 4 mps 753 mmHg 88%
    23:00 +14°C° 0 mm 4 mps 752 mmHg 89%

    31 August, Saturday

    Time Temperature Precipitation Wind Pressure Humidity
    00:00 +14°C° 0 mm 5 mps 752 mmHg 90%
    01:00 +14°C° 0 mm 5 mps 751 mmHg 89%
    02:00 +14°C° 0 mm 5 mps 751 mmHg 89%
    03:00 +14°C° 0 mm 5 mps 750 mmHg 88%
    04:00 +14°C° 0 mm 6 mps 750 mmHg 87%
    05:00 +14°C° 0 mm 6 mps 750 mmHg 86%
    06:00 +15°C° 0 mm 6 mps 749 mmHg 85%
    07:00 +15°C° 0 mm 6 mps 749 mmHg 83%
    08:00 +16°C° 0 mm 7 mps 750 mmHg 81%
    09:00 +16°C° 0 mm 7 mps 750 mmHg 79%
    10:00 +16°C° 0.5 mm 6 mps 750 mmHg 81%
    11:00 +16°C° 0.5 mm 6 mps 750 mmHg 83%
    12:00 +16°C° 0.5 mm 5 mps 750 mmHg 84%
    13:00 +16°C° 0 mm 5 mps 750 mmHg 75%
    14:00 +17°C° 0 mm 5 mps 750 mmHg 66%
    15:00 +17°C° 0 mm 5 mps 750 mmHg 57%
    16:00 +16°C° 0 mm 5 mps 750 mmHg 61%
    17:00 +17°C° 0 mm 4 mps 750 mmHg 65%
    18:00 +15°C° 0 mm 4 mps 750 mmHg 68%
    19:00 +14°C° 0 mm 4 mps 750 mmHg 72%
    20:00 +13°C° 0 mm 3 mps 751 mmHg 76%
    21:00 +12°C° 0 mm 3 mps 751 mmHg 80%
    22:00 +12°C° 0 mm 2 mps 751 mmHg 81%
    23:00 +12°C° 0 mm 2 mps 751 mmHg 81%
    Show more